Погода Агинское

Погода Агинское : погода сейчас, прогноз погоды и архив. Всё, что Вы хотите узнать о погоде Агинское!

Хотите узнать прогноз погоды Агинское? Тогда Вам сюда: Погода Агинское

Поиск расширенной информации на нашем сайте:

Другие новости

Новости СМИ2

Главная страница сайта

Новости сайта

02.10.2013

Напоминаем, что на нашем новом сайте вы можете получить высокодетализированные прогнозы погоды по пунктам России, СНГ и мира (включающие важные для авиации метеовеличины, такие как направление и скорость ветра, видимость, явления погоды, количество и форма облачности, нижняя и верхняя граница облачности), а также ознакомиться с разнообразными материалами по авиационной метеорологии и подборкой полезных ссылок на эту тему.

Сайт Метеоцентр.Азия посвящён разработке технологий оптимизации авиаметеорологического обслуживания, включая проектирование и перспективное создание нескольких автоматизированных авиаметеорологических систем:
- система выпуска высокодетальных прогностических карт явлений погоды для нижнего воздушного пространства по России и ближнему зарубежью;
- система верификации прогнозов TAF (выпускаемых синоптиками официальных АМСГ РФ и ближнего зарубежья) и AUTOTAF (выпускаемых сайтом Метеоцентр.Азия) - выявление ошибок, онлайн-сопоставление с фактической погодой METAR, автоматическое внесение коррективов в прогнозы при резком отклонении фактической погоды от прогноза, подсчёт оправдываемости прогнозов по элементам и в целом;
- система обработки, анализа и отображения авиаметеорологической информации для применения провайдерами метеорологической информации.

Рекомендуем: Сравнить цены на полиграфические и дизайнерские услуги www.poli33.ru.

Погода Агинское - сегодня

Время (UTC), дата Ветер
(°,м/с) 
Видим.   Явления Облачность Т
(°С)
Тd
(°С)
f(%) Тe
(°С)
Pmin
(гПа)
dP
(гПа)
Po
(мм)
O2
(г/м3)
Тmin Tmax R s Состояние
почвы
21 27.03.17 290 (З) 20000 м    10/10 1200 м 
[Sc]
+3.4 -2.3 66 +3  1018.7  2.1  733  292           
00 28.03.17 тихо ()   20000 м    10/10 1200 м 
[Sc]
+2.8 -0.4 79 +3  1023.5  2.2  736  294  -2.4      мокрый или
старый снег
50-90% 
03 28.03.17 290 (З) 20000 м    9/9 1200 м 
[Sc]
+5 -2.4 59 +4  1024.8  1.6  738  292           
06 28.03.17 280 (З) 20000 м    9/9 900 м кучево-дожд. 
[Cb cap]
+7.3 -2.8 49 +7  1024.3  -0.2  737  290           
09 28.03.17 310 (СЗ) 20000 м    10/10 1200 м 
[Sc]
+7.3 -2.9 48 +7  1024.4  0.1  738  290           
12 28.03.17 260 (З) 20000 м    10/4 1000 м верхняя 
[Sc|Cs]
+6.1 -4 48 +7  1024.8  0.2  738  291    +8       
15 28.03.17 250 (З) 20000 м    6/6 1000 м 
[Sc]
+4.3 -3.7 56 +3  1025.1  738  293           
18 28.03.17 тихо ()   20000 м    ясно 
-2.4 -4.3 87 -2  1025.5  -0.6  737  300           
21 28.03.17 тихо ()   20000 м    ясно 
-3.7 -4.9 91 -4  1024.8  -0.9  737  301           
00 29.03.17 350 (С) 20000 м    4/3 2000 м средняя, верхняя 
[Ac lent|Ci fib]
-4.7 -5.3 96 -4  1024.8  -0.1  737  303  -5.2      мокрый или
старый снег
10-40% 
03 29.03.17 180 (Ю) 20000 м    8/4 2000 м средняя, верхняя 
[Ac lent|Cs]
+5.2 -2.3 58 +6  1023.1  -0.1  736  291           
06 29.03.17 160 (Ю) 20000 м    10/4 1000 м верхняя 
[Cu hum|Ci fib]
+12.9 -3.6 31 +13  1020.2  -1.8  735  283           
09 29.03.17 250 (З) 20000 м    8/0 верхняя 
[Cs]
+15.4 -4.9 24 +16  1017.8  -1.9  734  280           
12 29.03.17 тихо ()   20000 м    8/0 верхняя 
[Cs]
+10.5 -3.2 38 +11  1017.1  -1.4  733  285    +16.3       
15 29.03.17 тихо ()   20000 м    ясно 
+2 -3 69 +2  1017.7  -0.6  732  293           
18 29.03.17 030 (СВ) 20000 м    ясно 
-2.1 -4 87 -2  1018.4  732  298           
21 29.03.17 020 (С) 20000 м    10/0 верхняя 
[Cs]
-2.3 -3.9 89 -3  1018.8  0.4  732  298           
00 30.03.17 360 (С) 20000 м    10/3 1000 м средняя 
[Sc|As op]
-2.1 -3.4 91 -2  1019.6  0.8  733  298  -3      мокрый или
старый снег
10-40% 
03 30.03.17 360 (С) 20000 м    10/5 600 м кучево-дожд., средняя 
[Cb cap|As op]
+7.7 -0.5 56 +9  1017.6  -0.5  733  287           
06 30.03.17 110 (В) 20000 м    10/0 верхняя 
[Cs]
+17.9 -3.3 23 +19  1014.1  -2  731  277           
09 30.03.17 140 (ЮВ) 20000 м    3/0 верхняя 
[Ci fib]
+19.7 -6.6 16 +21  1011.1  -2.6  729  275           
12 30.03.17 200 (Ю) 20000 м    8/4 600 м кучево-дожд., верхняя 
[Cb cap|Cs]
+15.7 -5.9 22 +16  1009.8  -1.8  728  278    +19.9       
15 30.03.17 тихо ()   20000 м    ясно 
+5.2 -3.1 55 +5  1009.5  -1.7  727  288           
18 30.03.17 210 (ЮЗ) 20000 м    10/0 верхняя 
[Cs]
+3.9 -3.9 57 +5  1007.8  -1.8  725  288           
21 30.03.17 020 (С) 20000 м    10/10 1200 м 
[Sc]
+6.5 -3.9 47 +7  1006.7  -0.7  725  286           
Время (UTC), дата Ветер
(°,м/с) 
Видим.   Явления Облачность Т
(°С)
Тd
(°С)
f(%) Тe
(°С)
Pmin
(гПа)
dP
(гПа)
Po
(мм)
O2
(г/м3)
Тmin Tmax R s Состояние
почвы

Для получения пояснительной информации подведите курсор к названию столбца.

ПОГОДА Агинское - архив

Всё, что Вы хотите узнать о погоде Агинское - удобно и подробно!

Выберите нужную дату (начиная с 1 января 2015* года) и нажмите кнопку "Найти".
Будут отображены архивные сводки погоды по пункту Агинское, начиная с указанной даты.


Отображать данные в формате CSV (для использования в таблицах Excel)


Внимание! Наш архив погоды предназначен исключительно для личного некоммерческого использования в познавательных целях. Если Вам необходимы официальные справки о состоянии погоды (для производственных, юридических, коммерческих и т.п. целей), обращайтесь в органы Росгидромета.

*Примечание: данная дата относится к архиву по метеостанциям СССР (Россия, СНГ, Балтия).
Архив по метеостанциям Зарубежной Европы и Азии (кроме Китая) хранится 10 дней, по другим регионам земного шара (Китай, Африка, Америка, Австралия, Океания) - 1 день.

Агинское - район местоположения метеостанции


Название, широта, долгота, высота метеостанции:
Агинское 55.2°ш. 94.9°д. 337 м над ур. моря [Российская Федерация]

Дополнительная информация

В oтличие oт бoльшинства пoгoдных сайтoв мы публикуем пoдрoбную метеoинфoрмацию в детальнoм прoфессиoнальнoм фoрмате.

Характеристики температуры и влажнoсти вoздуха измеряются на высoте 2 м в тени вдали oт зданий и деревьев.
Скoрoсть ветра измеряется на высoте 10 м (на урoвне рoста челoвека скoрoсть ветра ниже в 1.5-2 раза). Если метеoстанция нахoдится в гoрoде или в лесу, тo скoрoсть ветра занижена на 2-4 м/с пo сравнению с oткрытым местoм. Скoрoсть ветра над акватoриями крупных рек и oзёр, а также на вершинах хoлмoв на 2-5 м/с выше, чем в oбычных услoвиях.
Атмoсфернoе давление в разных тoчках местнoсти мoжет значительнo oтличаться oт давления на метеoстанции, в зависимoсти oт услoвий рельефа (при пoдъёме на 10 м давление пoнижается примернo на 1 мм рт.ст.).